JBU7532 EGKK-KJFK

Flight info

Callsign JBU7532
Flight time N/A
Altitude 36000
Route NOVMA L620 SAM N19 ADKIK DCT MOPAT DCT PIKIL/M078F370 DCT 57N020W 58N030W 58N040W 56N050W DCT JANJO/N0449F380 N708B MIILS DCT ENE PARCH3
Aircraft A20N/M-SDE2E3FGHIRWXY/LB1

Departure

Time 2026-04-16 23:06
Airport London Gatwick Airport (EGKK)

Arrival

Time N/A
Airport John F. Kennedy International Airport (KJFK)
Time Latitude Longitude Altitude Speed Heading
2026-04-16 22:50 51.15263 -0.18891 195 ft 0 kts 257°
2026-04-16 22:56 51.15266 -0.18868 213 ft 3 kts 257°
2026-04-16 22:57 51.15270 -0.18834 204 ft 3 kts 257°
2026-04-16 22:57 51.15274 -0.18812 213 ft 3 kts 252°
2026-04-16 22:57 51.15282 -0.18782 208 ft 3 kts 237°
2026-04-16 22:57 51.15301 -0.18747 216 ft 3 kts 211°
2026-04-16 22:58 51.15313 -0.18737 207 ft 3 kts 196°
2026-04-16 22:58 51.15322 -0.18734 217 ft 0 kts 184°
2026-04-16 23:02 51.15250 -0.18717 204 ft 23 kts 166°
2026-04-16 23:02 51.15183 -0.18673 211 ft 14 kts 154°
2026-04-16 23:03 51.15148 -0.18638 209 ft 5 kts 132°
2026-04-16 23:03 51.15142 -0.18604 208 ft 19 kts 107°
2026-04-16 23:03 51.15195 -0.18189 206 ft 40 kts 77°
2026-04-16 23:03 51.15245 -0.17814 213 ft 20 kts 79°
2026-04-16 23:04 51.15285 -0.17528 204 ft 33 kts 78°
2026-04-16 23:04 51.15218 -0.17224 204 ft 36 kts 134°
2026-04-16 23:04 51.15202 -0.17193 207 ft 5 kts 128°
2026-04-16 23:04 51.15190 -0.17175 207 ft 0 kts 140°
2026-04-16 23:05 51.15095 -0.17139 208 ft 21 kts 189°
2026-04-16 23:05 51.15077 -0.17144 209 ft 7 kts 215°
2026-04-16 23:05 51.15055 -0.17246 215 ft 50 kts 255°
2026-04-16 23:06 51.14915 -0.18240 209 ft 130 kts 257°
2026-04-16 23:06 51.14675 -0.19924 491 ft 171 kts 256°
2026-04-16 23:06 51.14414 -0.21884 1113 ft 189 kts 257°
2026-04-16 23:06 51.14144 -0.23938 1838 ft 193 kts 255°
2026-04-16 23:07 51.13833 -0.26094 2320 ft 206 kts 255°
2026-04-16 23:07 51.13509 -0.28346 3038 ft 209 kts 255°
2026-04-16 23:07 51.13196 -0.30588 3775 ft 214 kts 255°
2026-04-16 23:07 51.12854 -0.33065 4106 ft 235 kts 255°
2026-04-16 23:08 51.12488 -0.35743 4192 ft 257 kts 256°
2026-04-16 23:08 51.12119 -0.38484 4183 ft 245 kts 256°
2026-04-16 23:08 51.11785 -0.40961 4190 ft 224 kts 255°
2026-04-16 23:08 51.11346 -0.43437 4189 ft 238 kts 247°
2026-04-16 23:09 51.10634 -0.45783 4289 ft 233 kts 242°
2026-04-16 23:09 51.09932 -0.47981 4693 ft 235 kts 243°
2026-04-16 23:09 51.09203 -0.50300 5339 ft 238 kts 243°
2026-04-16 23:09 51.08453 -0.52706 6006 ft 241 kts 243°
2026-04-16 23:10 51.07703 -0.55112 6679 ft 244 kts 243°
2026-04-16 23:10 51.06996 -0.57375 7283 ft 247 kts 243°
2026-04-16 23:10 51.06228 -0.59830 7940 ft 249 kts 243°
2026-04-16 23:10 51.05503 -0.62343 8598 ft 251 kts 249°
2026-04-16 23:11 51.05032 -0.65030 9278 ft 255 kts 257°
2026-04-16 23:11 51.04682 -0.67768 9965 ft 257 kts 257°
2026-04-16 23:11 51.04313 -0.70563 10601 ft 259 kts 257°
2026-04-16 23:11 51.03937 -0.73376 11246 ft 261 kts 256°
2026-04-16 23:12 51.03558 -0.76190 11893 ft 263 kts 256°
2026-04-16 23:12 51.03165 -0.79080 12561 ft 274 kts 256°
2026-04-16 23:12 51.02752 -0.82105 13257 ft 287 kts 256°
2026-04-16 23:12 51.02318 -0.85275 13969 ft 299 kts 256°
2026-04-16 23:13 51.01868 -0.88566 14593 ft 311 kts 256°
2026-04-16 23:13 51.01401 -0.91979 15237 ft 321 kts 256°
2026-04-16 23:13 51.00922 -0.95501 15886 ft 330 kts 256°
2026-04-16 23:13 51.00433 -0.99105 16548 ft 338 kts 256°
2026-04-16 23:14 50.99931 -1.02789 17228 ft 344 kts 256°
2026-04-16 23:14 50.99419 -1.06515 17915 ft 347 kts 256°
2026-04-16 23:14 50.98905 -1.10239 18602 ft 352 kts 256°
2026-04-16 23:14 50.98379 -1.14035 19218 ft 353 kts 256°
2026-04-16 23:15 50.97316 -1.21687 20484 ft 357 kts 257°
2026-04-16 23:15 50.96771 -1.25596 21150 ft 360 kts 257°
2026-04-16 23:15 50.96229 -1.29474 21815 ft 363 kts 257°
2026-04-16 23:16 50.95678 -1.33403 22517 ft 365 kts 257°
2026-04-16 23:16 50.95132 -1.37367 23219 ft 368 kts 258°
2026-04-16 23:16 50.94626 -1.41342 23904 ft 370 kts 258°
2026-04-16 23:16 50.94141 -1.45245 24494 ft 371 kts 258°
2026-04-16 23:17 50.93640 -1.49262 25113 ft 372 kts 258°
2026-04-16 23:17 50.93133 -1.53280 25742 ft 372 kts 258°
2026-04-16 23:17 50.92619 -1.57311 26385 ft 372 kts 258°
2026-04-16 23:17 50.92112 -1.61268 27042 ft 371 kts 258°
2026-04-16 23:18 50.91597 -1.65262 27712 ft 369 kts 258°
2026-04-16 23:18 50.91083 -1.69243 28409 ft 367 kts 258°
2026-04-16 23:18 50.90573 -1.73178 29113 ft 364 kts 258°
2026-04-16 23:18 50.90065 -1.77089 29838 ft 361 kts 258°
2026-04-16 23:19 50.89561 -1.80956 30527 ft 357 kts 258°
2026-04-16 23:19 50.89060 -1.84786 31170 ft 352 kts 258°
2026-04-16 23:19 50.88566 -1.88559 31813 ft 348 kts 258°
2026-04-16 23:19 50.88077 -1.92277 32487 ft 342 kts 258°
2026-04-16 23:20 50.87594 -1.95944 33170 ft 336 kts 258°
2026-04-16 23:20 50.87122 -1.99522 33873 ft 329 kts 258°
2026-04-16 23:20 50.86658 -2.03021 34517 ft 321 kts 258°
2026-04-16 23:20 50.86206 -2.06427 35125 ft 311 kts 258°
2026-04-16 23:21 50.85772 -2.09691 35645 ft 305 kts 258°
2026-04-16 23:21 50.85332 -2.12988 35819 ft 308 kts 258°
2026-04-16 23:21 50.84887 -2.16315 36000 ft 310 kts 258°
2026-04-16 23:21 50.84436 -2.19674 36160 ft 313 kts 258°
2026-04-16 23:22 50.83978 -2.23079 36181 ft 321 kts 258°
2026-04-16 23:22 50.83024 -2.30150 36166 ft 337 kts 258°
2026-04-16 23:23 50.82025 -2.37520 36165 ft 352 kts 258°
2026-04-16 23:23 50.80993 -2.45105 36167 ft 352 kts 257°
2026-04-16 23:24 50.80174 -2.52723 36164 ft 353 kts 266°
2026-04-16 23:24 50.80709 -2.60451 36159 ft 357 kts 282°
2026-04-16 23:25 50.82049 -2.67965 36161 ft 358 kts 282°
2026-04-16 23:25 50.83374 -2.75556 36169 ft 358 kts 281°
2026-04-16 23:26 50.84695 -2.83150 36170 ft 358 kts 281°
2026-04-16 23:26 50.86014 -2.90763 36169 ft 359 kts 281°
2026-04-16 23:27 50.87327 -2.98379 36169 ft 359 kts 281°
2026-04-16 23:27 50.88625 -3.05940 36169 ft 358 kts 281°
2026-04-16 23:28 50.89926 -3.13559 36162 ft 358 kts 281°
2026-04-16 23:28 50.91221 -3.21172 36160 ft 358 kts 281°
2026-04-16 23:29 50.92511 -3.28788 36155 ft 357 kts 281°
2026-04-16 23:29 50.93784 -3.36340 36151 ft 357 kts 281°
2026-04-16 23:30 50.95060 -3.43939 36146 ft 356 kts 281°
2026-04-16 23:30 50.96327 -3.51522 36139 ft 356 kts 281°
2026-04-16 23:31 50.97590 -3.59110 36133 ft 355 kts 281°
2026-04-16 23:31 50.98843 -3.66670 36128 ft 354 kts 280°
2026-04-16 23:32 51.00080 -3.74177 36117 ft 354 kts 280°
2026-04-16 23:32 51.01320 -3.81727 36113 ft 353 kts 280°
2026-04-16 23:33 51.02554 -3.89299 36126 ft 357 kts 280°
2026-04-16 23:33 51.03822 -3.97119 36118 ft 374 kts 280°
2026-04-16 23:34 51.05148 -4.05295 36119 ft 390 kts 280°
2026-04-16 23:34 51.06520 -4.13804 36119 ft 405 kts 280°
2026-04-16 23:35 51.07924 -4.22545 36105 ft 412 kts 280°
2026-04-16 23:35 51.09333 -4.31356 36112 ft 411 kts 280°
2026-04-16 23:36 51.10731 -4.40170 36107 ft 411 kts 280°
2026-04-16 23:36 51.12123 -4.48988 36096 ft 411 kts 279°
2026-04-16 23:37 51.13509 -4.57827 36099 ft 411 kts 279°
2026-04-16 23:37 51.14888 -4.66669 36090 ft 417 kts 279°
2026-04-16 23:38 51.16285 -4.75661 35996 ft 417 kts 279°
2026-04-16 23:38 51.17666 -4.84590 36081 ft 419 kts 278°
2026-04-16 23:39 51.19047 -4.93600 36081 ft 419 kts 278°
2026-04-16 23:39 51.20424 -5.02623 36076 ft 419 kts 278°
2026-04-16 23:40 51.21795 -5.11657 36073 ft 419 kts 278°
2026-04-16 23:40 51.23148 -5.20617 36071 ft 419 kts 278°
2026-04-16 23:41 51.24505 -5.29665 36065 ft 419 kts 278°
2026-04-16 23:41 51.25856 -5.38716 36061 ft 419 kts 278°
2026-04-16 23:42 51.27201 -5.47780 36057 ft 419 kts 278°
2026-04-16 23:42 51.28528 -5.56780 36051 ft 419 kts 277°
2026-04-16 23:43 51.29860 -5.65865 36052 ft 420 kts 277°
2026-04-16 23:43 51.31184 -5.74947 36049 ft 420 kts 277°
2026-04-16 23:44 51.32502 -5.84042 36043 ft 420 kts 277°
2026-04-16 23:44 51.33804 -5.93078 36036 ft 420 kts 277°
2026-04-16 23:45 51.35106 -6.02169 36031 ft 420 kts 277°
2026-04-16 23:45 51.36403 -6.11275 36029 ft 420 kts 277°
2026-04-16 23:46 51.37693 -6.20397 36020 ft 420 kts 277°
2026-04-16 23:46 51.38968 -6.29459 36018 ft 420 kts 277°
2026-04-16 23:47 51.40243 -6.38578 36011 ft 420 kts 277°
2026-04-16 23:47 51.41511 -6.47706 36007 ft 420 kts 276°
2026-04-16 23:48 51.42765 -6.56783 36001 ft 420 kts 276°
2026-04-16 23:48 51.44018 -6.65917 36003 ft 420 kts 276°
2026-04-16 23:49 51.45275 -6.75126 35992 ft 420 kts 276°
2026-04-16 23:49 51.46506 -6.84209 35994 ft 420 kts 276°
2026-04-16 23:50 51.47738 -6.93359 35983 ft 420 kts 276°
2026-04-16 23:50 51.48993 -7.02526 35983 ft 422 kts 279°
2026-04-16 23:51 51.51556 -7.11180 35966 ft 442 kts 298°
2026-04-16 23:51 51.53563 -7.14915 35965 ft 454 kts 308°
2026-04-16 23:51 51.55874 -7.18380 35963 ft 455 kts 308°
2026-04-16 23:52 51.60499 -7.25333 35961 ft 455 kts 308°
2026-04-16 23:52 51.65127 -7.32305 35953 ft 456 kts 308°
2026-04-16 23:53 51.69760 -7.39300 35948 ft 456 kts 308°
2026-04-16 23:53 51.74352 -7.46249 35939 ft 457 kts 308°
2026-04-16 23:54 51.78951 -7.53231 35934 ft 457 kts 308°
2026-04-16 23:54 51.83574 -7.60280 35930 ft 457 kts 308°
2026-04-16 23:55 51.88193 -7.67345 35927 ft 457 kts 308°
2026-04-16 23:55 51.92819 -7.74445 35918 ft 458 kts 308°
2026-04-16 23:56 51.97421 -7.81527 35914 ft 459 kts 308°
2026-04-16 23:56 52.02045 -7.88665 35905 ft 459 kts 308°
2026-04-16 23:57 52.06674 -7.95834 35894 ft 460 kts 308°
2026-04-16 23:57 52.11288 -8.02998 35897 ft 461 kts 308°
2026-04-16 23:58 52.15924 -8.10220 35893 ft 461 kts 308°
2026-04-16 23:58 52.20557 -8.17458 35886 ft 462 kts 308°
2026-04-16 23:59 52.25161 -8.24674 35879 ft 463 kts 308°
2026-04-16 23:59 52.29806 -8.31974 35879 ft 464 kts 308°
2026-04-17 00:00 52.34451 -8.39299 35873 ft 464 kts 308°
2026-04-17 00:00 52.39105 -8.46661 35859 ft 465 kts 308°
2026-04-17 00:01 52.43760 -8.54045 35855 ft 466 kts 308°
2026-04-17 00:01 52.48420 -8.61460 35836 ft 467 kts 308°
2026-04-17 00:02 52.53086 -8.68908 35825 ft 468 kts 308°
2026-04-17 00:02 52.57723 -8.76334 35816 ft 469 kts 308°
2026-04-17 00:03 52.62395 -8.83839 35810 ft 470 kts 308°
2026-04-17 00:03 52.67071 -8.91373 35810 ft 471 kts 308°
2026-04-17 00:04 52.71746 -8.98929 35803 ft 471 kts 308°
2026-04-17 00:04 52.76398 -9.06474 35807 ft 472 kts 308°
2026-04-17 00:05 52.81086 -9.14100 35807 ft 473 kts 308°
2026-04-17 00:05 52.85766 -9.21738 35803 ft 474 kts 308°
2026-04-17 00:06 52.90463 -9.29427 35797 ft 475 kts 308°
2026-04-17 00:06 52.95120 -9.37076 35781 ft 475 kts 308°
2026-04-17 00:07 52.99811 -9.44806 35775 ft 476 kts 308°
2026-04-17 00:07 53.04508 -9.52571 35772 ft 476 kts 308°
2026-04-17 00:08 53.09198 -9.60351 35770 ft 477 kts 308°
2026-04-17 00:08 53.13898 -9.68171 35762 ft 478 kts 308°
2026-04-17 00:09 53.18563 -9.75958 35756 ft 478 kts 308°
2026-04-17 00:09 53.23254 -9.83816 35752 ft 478 kts 308°
2026-04-17 00:10 53.27949 -9.91706 35744 ft 479 kts 308°
2026-04-17 00:10 53.32642 -9.99617 35730 ft 479 kts 308°
2026-04-17 00:11 53.37286 -10.07473 35730 ft 480 kts 308°
2026-04-17 00:11 53.41990 -10.15457 35723 ft 480 kts 308°
2026-04-17 00:12 53.46679 -10.23443 35714 ft 480 kts 308°
2026-04-17 00:12 53.51362 -10.31445 35703 ft 481 kts 308°
2026-04-17 00:13 53.56044 -10.39470 35696 ft 481 kts 308°
2026-04-17 00:13 53.60689 -10.47460 35684 ft 481 kts 308°
2026-04-17 00:14 53.65369 -10.55536 35690 ft 481 kts 308°
2026-04-17 00:14 53.70046 -10.63636 35675 ft 482 kts 308°
2026-04-17 00:15 53.74716 -10.71750 35666 ft 482 kts 308°
2026-04-17 00:15 53.79386 -10.79893 35660 ft 483 kts 308°
2026-04-17 00:16 53.84026 -10.88009 35649 ft 483 kts 308°
2026-04-17 00:16 53.88688 -10.96194 35640 ft 483 kts 308°
2026-04-17 00:17 53.93354 -11.04413 35632 ft 483 kts 308°
2026-04-17 00:17 53.98019 -11.12659 35626 ft 484 kts 308°
2026-04-17 00:18 54.02644 -11.20861 35618 ft 484 kts 308°
2026-04-17 00:18 54.07298 -11.29145 35614 ft 484 kts 308°
2026-04-17 00:19 54.11950 -11.37453 35609 ft 485 kts 308°
2026-04-17 00:19 54.16601 -11.45789 35592 ft 485 kts 308°
2026-04-17 00:20 54.21216 -11.54089 35583 ft 485 kts 308°
2026-04-17 00:20 54.25860 -11.62468 35580 ft 486 kts 308°
2026-04-17 00:21 54.30497 -11.70867 35574 ft 486 kts 308°
2026-04-17 00:21 54.35135 -11.79295 35570 ft 486 kts 308°
2026-04-17 00:22 54.42083 -11.91979 35559 ft 486 kts 308°
2026-04-17 00:22 54.46716 -12.00474 35550 ft 487 kts 308°
2026-04-17 00:23 54.51305 -12.08917 35547 ft 487 kts 308°
2026-04-17 00:23 54.55960 -12.17512 35540 ft 487 kts 308°
2026-04-17 00:24 54.60542 -12.26004 35534 ft 487 kts 308°
2026-04-17 00:24 54.65158 -12.34588 35529 ft 487 kts 308°
2026-04-17 00:25 54.69763 -12.43184 35524 ft 488 kts 308°
2026-04-17 00:25 54.74333 -12.51744 35520 ft 488 kts 308°
2026-04-17 00:26 54.78926 -12.60378 35515 ft 488 kts 308°
2026-04-17 00:26 54.83518 -12.69043 35511 ft 488 kts 308°
2026-04-17 00:27 54.88103 -12.77725 35504 ft 488 kts 308°
2026-04-17 00:27 54.92679 -12.86421 35497 ft 488 kts 308°
2026-04-17 00:28 54.97255 -12.95148 35498 ft 488 kts 308°
2026-04-17 00:28 55.01792 -13.03833 35491 ft 488 kts 308°
2026-04-17 00:29 55.06356 -13.12602 35487 ft 488 kts 308°
2026-04-17 00:29 55.10909 -13.21382 35483 ft 488 kts 308°
2026-04-17 00:30 55.15431 -13.30134 35482 ft 488 kts 308°
2026-04-17 00:30 55.19977 -13.38964 35473 ft 488 kts 308°
2026-04-17 00:31 55.24511 -13.47805 35469 ft 488 kts 308°
2026-04-17 00:31 55.29039 -13.56665 35464 ft 488 kts 308°
2026-04-17 00:32 55.33565 -13.65555 35454 ft 488 kts 308°
2026-04-17 00:32 55.38055 -13.74406 35458 ft 488 kts 308°
2026-04-17 00:33 55.42566 -13.83333 35458 ft 488 kts 308°
2026-04-17 00:33 55.47070 -13.92279 35454 ft 488 kts 308°
2026-04-17 00:34 55.51566 -14.01242 35446 ft 488 kts 308°
2026-04-17 00:34 55.56032 -14.10179 35445 ft 488 kts 308°
2026-04-17 00:35 55.60513 -14.19178 35443 ft 488 kts 308°
2026-04-17 00:35 55.64994 -14.28213 35438 ft 488 kts 308°
2026-04-17 00:36 55.69470 -14.37271 35436 ft 488 kts 308°
2026-04-17 00:36 55.73934 -14.46339 35430 ft 488 kts 308°
2026-04-17 00:37 55.78362 -14.55366 35431 ft 488 kts 308°
2026-04-17 00:37 55.82817 -14.64481 35428 ft 488 kts 308°
2026-04-17 00:38 55.87268 -14.73608 35425 ft 488 kts 308°
2026-04-17 00:38 55.91707 -14.82738 35425 ft 488 kts 308°
2026-04-17 00:39 55.96113 -14.91834 35423 ft 487 kts 308°
2026-04-17 00:39 56.00033 -15.01612 35422 ft 482 kts 296°
2026-04-17 00:40 56.02773 -15.12452 35423 ft 478 kts 288°
2026-04-17 00:40 56.05252 -15.23506 35421 ft 478 kts 289°
2026-04-17 00:41 56.07717 -15.34457 35421 ft 478 kts 289°
2026-04-17 00:41 56.10177 -15.45529 35423 ft 478 kts 288°
2026-04-17 00:42 56.12619 -15.56605 35423 ft 478 kts 288°
2026-04-17 00:42 56.15051 -15.67701 35422 ft 478 kts 288°
2026-04-17 00:43 56.17472 -15.78805 35419 ft 478 kts 288°
2026-04-17 00:43 56.19870 -15.89864 35422 ft 478 kts 288°
2026-04-17 00:44 56.22269 -16.00987 35416 ft 478 kts 288°
2026-04-17 00:44 56.24661 -16.12135 35426 ft 478 kts 288°
2026-04-17 00:45 56.27045 -16.23307 35430 ft 478 kts 288°
2026-04-17 00:45 56.29400 -16.34404 35434 ft 478 kts 288°
2026-04-17 00:46 56.31762 -16.45593 35433 ft 477 kts 288°
2026-04-17 00:46 56.34110 -16.56782 35436 ft 477 kts 288°
2026-04-17 00:47 56.36446 -16.67968 35442 ft 477 kts 288°
2026-04-17 00:47 56.38381 -16.77289 35445 ft 477 kts 288°
2026-04-17 00:48 56.40699 -16.88504 35454 ft 477 kts 288°
2026-04-17 00:48 56.43005 -16.99727 35459 ft 477 kts 287°
2026-04-17 00:49 56.45289 -17.10906 35464 ft 477 kts 287°
2026-04-17 00:49 56.47576 -17.22163 35471 ft 477 kts 287°
2026-04-17 00:50 56.49854 -17.33436 35472 ft 477 kts 287°
2026-04-17 00:50 56.52117 -17.44703 35479 ft 477 kts 287°
2026-04-17 00:51 56.54372 -17.55990 35484 ft 476 kts 287°
2026-04-17 00:51 56.56601 -17.67215 35487 ft 476 kts 287°
2026-04-17 00:52 56.58834 -17.78524 35491 ft 476 kts 287°
2026-04-17 00:52 56.61058 -17.89852 35497 ft 476 kts 287°
2026-04-17 00:53 56.63255 -18.01107 35500 ft 476 kts 287°
2026-04-17 00:53 56.65454 -18.12442 35508 ft 476 kts 287°
2026-04-17 00:54 56.67643 -18.23787 35512 ft 476 kts 287°
2026-04-17 00:54 56.69811 -18.35093 35516 ft 476 kts 287°
2026-04-17 00:55 56.71972 -18.46427 35518 ft 476 kts 286°
2026-04-17 00:55 56.74136 -18.57841 35519 ft 475 kts 286°
2026-04-17 00:56 56.76243 -18.69026 35524 ft 476 kts 286°
2026-04-17 00:56 56.78382 -18.80443 35529 ft 476 kts 286°
2026-04-17 00:57 56.80463 -18.91623 35534 ft 476 kts 286°
2026-04-17 00:57 56.82580 -19.03058 35536 ft 476 kts 286°
2026-04-17 00:58 56.84678 -19.14466 35536 ft 475 kts 286°
2026-04-17 00:58 56.86774 -19.25927 35543 ft 475 kts 286°
2026-04-17 00:59 56.88860 -19.37409 35547 ft 475 kts 286°
2026-04-17 00:59 56.90839 -19.48366 35550 ft 475 kts 285°
2026-04-17 01:00 56.92762 -19.59077 35550 ft 475 kts 285°
2026-04-17 01:00 56.94796 -19.70470 35557 ft 475 kts 285°
2026-04-17 01:01 56.96827 -19.81918 35559 ft 475 kts 285°
2026-04-17 01:01 56.98858 -19.93401 35560 ft 475 kts 285°
2026-04-17 01:02 57.00680 -20.04943 35561 ft 473 kts 281°
2026-04-17 01:02 57.02268 -20.16329 35560 ft 474 kts 282°
2026-04-17 01:03 57.03949 -20.28035 35568 ft 474 kts 282°
2026-04-17 01:03 57.05601 -20.39685 35575 ft 474 kts 282°
2026-04-17 01:04 57.07245 -20.51409 35574 ft 474 kts 282°
2026-04-17 01:04 57.08831 -20.62846 35575 ft 474 kts 282°
2026-04-17 01:05 57.10414 -20.74386 35573 ft 474 kts 281°
2026-04-17 01:05 57.11962 -20.85761 35585 ft 474 kts 281°
2026-04-17 01:06 57.13539 -20.97444 35589 ft 474 kts 281°
2026-04-17 01:06 57.15096 -21.09064 35597 ft 474 kts 281°
2026-04-17 01:07 57.16656 -21.20799 35599 ft 474 kts 281°
2026-04-17 01:07 57.18088 -21.31657 35600 ft 474 kts 281°
2026-04-17 01:08 57.19617 -21.43334 35604 ft 474 kts 281°
2026-04-17 01:08 57.21153 -21.55160 35601 ft 474 kts 281°
2026-04-17 01:09 57.22678 -21.66998 35608 ft 474 kts 281°
2026-04-17 01:09 57.24180 -21.78754 35615 ft 474 kts 281°
2026-04-17 01:10 57.25664 -21.90467 35621 ft 474 kts 281°
2026-04-17 01:10 57.27047 -22.01463 35622 ft 474 kts 280°
2026-04-17 01:11 57.28516 -22.13231 35625 ft 474 kts 280°
2026-04-17 01:11 57.29987 -22.25126 35631 ft 474 kts 280°
2026-04-17 01:12 57.31407 -22.36703 35633 ft 474 kts 280°
2026-04-17 01:12 57.32872 -22.48743 35637 ft 474 kts 280°
2026-04-17 01:13 57.34303 -22.60606 35639 ft 474 kts 280°
2026-04-17 01:13 57.35725 -22.72505 35645 ft 474 kts 280°
2026-04-17 01:14 57.37125 -22.84314 35648 ft 474 kts 279°
2026-04-17 01:14 57.38527 -22.96241 35654 ft 474 kts 279°
2026-04-17 01:15 57.39906 -23.08083 35656 ft 474 kts 279°
2026-04-17 01:15 57.41282 -23.19997 35660 ft 474 kts 279°
2026-04-17 01:16 57.42648 -23.31938 35665 ft 474 kts 279°
2026-04-17 01:16 57.44006 -23.43911 35665 ft 474 kts 279°
2026-04-17 01:17 57.45337 -23.55757 35676 ft 474 kts 279°
2026-04-17 01:17 57.46662 -23.67663 35673 ft 474 kts 279°
2026-04-17 01:18 57.47981 -23.79618 35679 ft 474 kts 279°
2026-04-17 01:18 57.49271 -23.91418 35681 ft 474 kts 279°
2026-04-17 01:19 57.50572 -24.03434 35674 ft 474 kts 279°
2026-04-17 01:19 57.51862 -24.15457 35688 ft 474 kts 278°
2026-04-17 01:20 57.53130 -24.27396 35687 ft 474 kts 278°
2026-04-17 01:20 57.54396 -24.39426 35694 ft 474 kts 278°
2026-04-17 01:21 57.55650 -24.51463 35700 ft 473 kts 278°
2026-04-17 01:21 57.56894 -24.63516 35698 ft 473 kts 278°
2026-04-17 01:22 57.58123 -24.75556 35703 ft 473 kts 278°
2026-04-17 01:22 57.59343 -24.87620 35707 ft 473 kts 278°
2026-04-17 01:23 57.60542 -24.99596 35708 ft 473 kts 278°
2026-04-17 01:23 57.61738 -25.11666 35712 ft 473 kts 278°
2026-04-17 01:24 57.62923 -25.23749 35715 ft 473 kts 278°
2026-04-17 01:24 57.64094 -25.35819 35717 ft 473 kts 277°
2026-04-17 01:25 57.65240 -25.47749 35718 ft 473 kts 277°
2026-04-17 01:25 57.66386 -25.59810 35721 ft 473 kts 277°
2026-04-17 01:26 57.67523 -25.71891 35727 ft 473 kts 277°
2026-04-17 01:26 57.68645 -25.83964 35731 ft 473 kts 277°
2026-04-17 01:27 57.69754 -25.96009 35729 ft 473 kts 277°
2026-04-17 01:27 57.70857 -26.08127 35733 ft 473 kts 277°
2026-04-17 01:28 57.71905 -26.19775 35733 ft 473 kts 277°
2026-04-17 01:28 57.72978 -26.31829 35741 ft 473 kts 277°
2026-04-17 01:29 57.74560 -26.49853 35747 ft 472 kts 276°
2026-04-17 01:30 57.75612 -26.62010 35745 ft 473 kts 276°
2026-04-17 01:30 57.76649 -26.74130 35749 ft 473 kts 276°
2026-04-17 01:31 57.77656 -26.86051 35753 ft 473 kts 276°
2026-04-17 01:31 57.78618 -26.97555 35754 ft 472 kts 276°
2026-04-17 01:32 57.79616 -27.09648 35753 ft 472 kts 276°
2026-04-17 01:32 57.80600 -27.21705 35759 ft 472 kts 276°
2026-04-17 01:33 57.81582 -27.33891 35759 ft 472 kts 276°
2026-04-17 01:33 57.82545 -27.45994 35763 ft 472 kts 276°
2026-04-17 01:34 57.83504 -27.58183 35766 ft 472 kts 275°
2026-04-17 01:34 57.84441 -27.70257 35769 ft 472 kts 275°
2026-04-17 01:35 57.85382 -27.82554 35769 ft 472 kts 275°
2026-04-17 01:35 57.86304 -27.94743 35773 ft 472 kts 275°
2026-04-17 01:36 57.87215 -28.06964 35777 ft 472 kts 275°
2026-04-17 01:36 57.88114 -28.19171 35775 ft 471 kts 275°
2026-04-17 01:37 57.88993 -28.31288 35775 ft 471 kts 275°
2026-04-17 01:37 57.89868 -28.43500 35775 ft 471 kts 275°
2026-04-17 01:38 57.90725 -28.55636 35779 ft 471 kts 275°
2026-04-17 01:38 57.91573 -28.67804 35784 ft 471 kts 275°
2026-04-17 01:39 57.92406 -28.79942 35782 ft 471 kts 275°
2026-04-17 01:39 57.93227 -28.92086 35783 ft 471 kts 274°
2026-04-17 01:40 57.94036 -29.04216 35788 ft 471 kts 274°
2026-04-17 01:40 57.94838 -29.16436 35788 ft 471 kts 274°
2026-04-17 01:41 57.95626 -29.28611 35788 ft 471 kts 274°
2026-04-17 01:41 57.96407 -29.40869 35792 ft 471 kts 274°
2026-04-17 01:42 57.97180 -29.53178 35791 ft 471 kts 274°
2026-04-17 01:42 57.97942 -29.65433 35794 ft 471 kts 274°
2026-04-17 01:43 57.98697 -29.77689 35792 ft 471 kts 274°
2026-04-17 01:43 57.99441 -29.89930 35787 ft 470 kts 274°
2026-04-17 01:44 58.00104 -30.02124 35797 ft 470 kts 272°
2026-04-17 01:44 58.00491 -30.14384 35789 ft 469 kts 271°
2026-04-17 01:45 58.00975 -30.26657 35786 ft 469 kts 272°
2026-04-17 01:45 58.01450 -30.38940 35798 ft 469 kts 272°
2026-04-17 01:46 58.01888 -30.50801 35800 ft 469 kts 271°
2026-04-17 01:46 58.02310 -30.62654 35792 ft 469 kts 271°
2026-04-17 01:47 58.02683 -30.73606 35794 ft 468 kts 271°
2026-04-17 01:47 58.03089 -30.85884 35795 ft 468 kts 271°
2026-04-17 01:48 58.03481 -30.98134 35796 ft 468 kts 271°
2026-04-17 01:48 58.03859 -31.10308 35794 ft 467 kts 271°
2026-04-17 01:49 58.04216 -31.22175 35793 ft 467 kts 271°
2026-04-17 01:49 58.04573 -31.34395 35791 ft 467 kts 271°
2026-04-17 01:50 58.04917 -31.46610 35796 ft 467 kts 271°
2026-04-17 01:50 58.05248 -31.58723 35793 ft 466 kts 271°
2026-04-17 01:51 58.05568 -31.70930 35792 ft 465 kts 271°
2026-04-17 01:51 58.05877 -31.83123 35793 ft 465 kts 271°
2026-04-17 01:52 58.06175 -31.95321 35794 ft 464 kts 271°
2026-04-17 01:52 58.06460 -32.07499 35794 ft 464 kts 271°
2026-04-17 01:53 58.06719 -32.19020 35794 ft 464 kts 270°
2026-04-17 01:53 58.06979 -32.31087 35793 ft 463 kts 270°
2026-04-17 01:54 58.07225 -32.42991 35791 ft 463 kts 270°
2026-04-17 01:54 58.07458 -32.54874 35790 ft 462 kts 270°
2026-04-17 01:55 58.07682 -32.66794 35793 ft 462 kts 270°
2026-04-17 01:55 58.07896 -32.78882 35792 ft 462 kts 270°
2026-04-17 01:56 58.08096 -32.90682 35795 ft 462 kts 270°
2026-04-17 01:56 58.08280 -33.02235 35792 ft 461 kts 270°
2026-04-17 01:57 58.08457 -33.13991 35792 ft 460 kts 270°
2026-04-17 01:57 58.08622 -33.25686 35790 ft 460 kts 270°
2026-04-17 01:58 58.08776 -33.37413 35787 ft 461 kts 270°
2026-04-17 01:58 58.08923 -33.49323 35782 ft 460 kts 270°
2026-04-17 01:59 58.09059 -33.61322 35793 ft 459 kts 270°
2026-04-17 01:59 58.09183 -33.73262 35785 ft 460 kts 269°
2026-04-17 02:00 58.09296 -33.85320 35784 ft 459 kts 269°
2026-04-17 02:00 58.09398 -33.97257 35781 ft 458 kts 269°
2026-04-17 02:01 58.09489 -34.09224 35779 ft 459 kts 269°
2026-04-17 02:01 58.09569 -34.21276 35781 ft 458 kts 269°
2026-04-17 02:02 58.09625 -34.31034 35781 ft 458 kts 269°
2026-04-17 02:02 58.09691 -34.44674 35776 ft 458 kts 269°
2026-04-17 02:03 58.09737 -34.56321 35778 ft 458 kts 269°
2026-04-17 02:03 58.09766 -34.65933 35775 ft 458 kts 269°
2026-04-17 02:04 58.09792 -34.77583 35772 ft 458 kts 269°
2026-04-17 02:04 58.09807 -34.89474 35773 ft 457 kts 269°
2026-04-17 02:05 58.09811 -35.01354 35769 ft 457 kts 269°
2026-04-17 02:05 58.09805 -35.12910 35767 ft 456 kts 269°
2026-04-17 02:06 58.09787 -35.24639 35769 ft 457 kts 269°
2026-04-17 02:06 58.09759 -35.36443 35762 ft 456 kts 268°
2026-04-17 02:07 58.09720 -35.48290 35759 ft 455 kts 268°
2026-04-17 02:07 58.09670 -35.60047 35763 ft 455 kts 268°
2026-04-17 02:08 58.09609 -35.71901 35759 ft 455 kts 268°
2026-04-17 02:08 58.09536 -35.83855 35754 ft 455 kts 268°
2026-04-17 02:09 58.09452 -35.95797 35752 ft 455 kts 268°
2026-04-17 02:09 58.09356 -36.07743 35753 ft 454 kts 268°
2026-04-17 02:10 58.09251 -36.19602 35751 ft 454 kts 268°
2026-04-17 02:10 58.09134 -36.31517 35749 ft 454 kts 268°
2026-04-17 02:11 58.09005 -36.43447 35747 ft 454 kts 268°
2026-04-17 02:11 58.08866 -36.55360 35742 ft 453 kts 268°
2026-04-17 02:12 58.08716 -36.67204 35743 ft 453 kts 268°
2026-04-17 02:12 58.08555 -36.79099 35742 ft 453 kts 267°
2026-04-17 02:13 58.08382 -36.91007 35738 ft 453 kts 267°
2026-04-17 02:13 58.08199 -37.02877 35736 ft 453 kts 267°
2026-04-17 02:14 58.08004 -37.14766 35738 ft 452 kts 267°
2026-04-17 02:14 58.07801 -37.26552 35731 ft 452 kts 267°
2026-04-17 02:15 58.07585 -37.38415 35726 ft 452 kts 267°
2026-04-17 02:15 58.07357 -37.50279 35723 ft 451 kts 267°
2026-04-17 02:16 58.07120 -37.62107 35724 ft 451 kts 267°
2026-04-17 02:16 58.06873 -37.73849 35722 ft 450 kts 267°
2026-04-17 02:17 58.06614 -37.85663 35719 ft 449 kts 266°
2026-04-17 02:17 58.06345 -37.97445 35719 ft 449 kts 266°
2026-04-17 02:18 58.06065 -38.09214 35713 ft 448 kts 266°
2026-04-17 02:18 58.05775 -38.20943 35713 ft 447 kts 266°
2026-04-17 02:19 58.05477 -38.32590 35709 ft 447 kts 266°
2026-04-17 02:19 58.05166 -38.44295 35704 ft 446 kts 266°
2026-04-17 02:20 58.04845 -38.55987 35701 ft 446 kts 266°
2026-04-17 02:20 58.04513 -38.67680 35699 ft 445 kts 266°
2026-04-17 02:21 58.04174 -38.79249 35700 ft 445 kts 266°
2026-04-17 02:21 58.03822 -38.90890 35694 ft 444 kts 266°
2026-04-17 02:22 58.03460 -39.02518 35687 ft 443 kts 266°
2026-04-17 02:22 58.03088 -39.14119 35686 ft 443 kts 265°
2026-04-17 02:23 58.02709 -39.25622 35679 ft 442 kts 265°
2026-04-17 02:23 58.02354 -39.36120 35672 ft 442 kts 265°
2026-04-17 02:24 58.01952 -39.47691 35672 ft 442 kts 265°
2026-04-17 02:24 58.01541 -39.59249 35666 ft 441 kts 265°
2026-04-17 02:25 58.01127 -39.70777 35661 ft 441 kts 265°
2026-04-17 02:25 58.00705 -39.82319 35660 ft 440 kts 265°
2026-04-17 02:26 58.00218 -39.93745 35658 ft 440 kts 262°
2026-04-17 02:26 57.99170 -40.05116 35658 ft 440 kts 257°
2026-04-17 02:27 57.97510 -40.16137 35657 ft 440 kts 254°
2026-04-17 02:27 57.95805 -40.27263 35654 ft 439 kts 254°
2026-04-17 02:28 57.94130 -40.38229 35655 ft 439 kts 254°
2026-04-17 02:28 57.92430 -40.49269 35657 ft 439 kts 254°
2026-04-17 02:29 57.90721 -40.60276 35659 ft 439 kts 254°
2026-04-17 02:29 57.88995 -40.71280 35663 ft 438 kts 254°
2026-04-17 02:30 57.87273 -40.82169 35666 ft 438 kts 254°
2026-04-17 02:30 57.85530 -40.93117 35669 ft 437 kts 254°
2026-04-17 02:31 57.83779 -41.04045 35673 ft 437 kts 254°
2026-04-17 02:31 57.82020 -41.14953 35672 ft 436 kts 254°
2026-04-17 02:32 57.80268 -41.25751 35677 ft 436 kts 253°
2026-04-17 02:32 57.78497 -41.36601 35686 ft 435 kts 253°
2026-04-17 02:33 57.76716 -41.47444 35690 ft 435 kts 253°
2026-04-17 02:33 57.74929 -41.58254 35696 ft 434 kts 253°
2026-04-17 02:34 57.73137 -41.69031 35699 ft 434 kts 253°
2026-04-17 02:34 57.71350 -41.79712 35703 ft 433 kts 253°
2026-04-17 02:35 57.69543 -41.90445 35709 ft 432 kts 253°
2026-04-17 02:35 57.66819 -42.06507 35717 ft 432 kts 253°
2026-04-17 02:36 57.64992 -42.17200 35719 ft 432 kts 253°
2026-04-17 02:36 57.63175 -42.27777 35727 ft 431 kts 253°
2026-04-17 02:37 57.61334 -42.38422 35731 ft 431 kts 253°
2026-04-17 02:37 57.59489 -42.49028 35730 ft 430 kts 253°
2026-04-17 02:38 57.57634 -42.59636 35738 ft 430 kts 253°
2026-04-17 02:38 57.55787 -42.70137 35738 ft 430 kts 253°
2026-04-17 02:39 57.53918 -42.80700 35740 ft 429 kts 253°
2026-04-17 02:39 57.52043 -42.91236 35746 ft 429 kts 253°
2026-04-17 02:40 57.50160 -43.01757 35747 ft 429 kts 253°
2026-04-17 02:40 57.48282 -43.12188 35753 ft 428 kts 253°
2026-04-17 02:41 57.46386 -43.22664 35758 ft 428 kts 253°
2026-04-17 02:41 57.44482 -43.33130 35764 ft 427 kts 253°
2026-04-17 02:42 57.42570 -43.43571 35765 ft 427 kts 253°
2026-04-17 02:42 57.40648 -43.54015 35774 ft 427 kts 253°
2026-04-17 02:43 57.38737 -43.64345 35772 ft 427 kts 252°
2026-04-17 02:43 57.36805 -43.74727 35776 ft 426 kts 252°
2026-04-17 02:44 57.34866 -43.85091 35778 ft 426 kts 252°
2026-04-17 02:44 57.32917 -43.95448 35782 ft 425 kts 252°
2026-04-17 02:45 57.30964 -44.05777 35786 ft 425 kts 252°
2026-04-17 02:45 57.29005 -44.16074 35790 ft 425 kts 252°
2026-04-17 02:46 57.27051 -44.26297 35798 ft 424 kts 252°
2026-04-17 02:46 57.25077 -44.36569 35800 ft 424 kts 252°
2026-04-17 02:47 57.23097 -44.46818 35799 ft 423 kts 252°
2026-04-17 02:47 57.21112 -44.57034 35807 ft 423 kts 252°
2026-04-17 02:48 57.19134 -44.67169 35813 ft 423 kts 252°
2026-04-17 02:48 57.17137 -44.77344 35815 ft 423 kts 252°
2026-04-17 02:49 57.15131 -44.87512 35818 ft 422 kts 252°
2026-04-17 02:49 57.13117 -44.97665 35821 ft 422 kts 252°
2026-04-17 02:50 57.11107 -45.07751 35829 ft 422 kts 252°
2026-04-17 02:50 57.09081 -45.17860 35835 ft 422 kts 252°
2026-04-17 02:51 57.07045 -45.27970 35836 ft 421 kts 252°
2026-04-17 02:51 57.05007 -45.38041 35839 ft 421 kts 252°
2026-04-17 02:52 57.02960 -45.48103 35839 ft 420 kts 252°
2026-04-17 02:52 57.00918 -45.58090 35844 ft 420 kts 252°
2026-04-17 02:53 56.98860 -45.68106 35847 ft 420 kts 252°
2026-04-17 02:53 56.96794 -45.78112 35849 ft 420 kts 252°
2026-04-17 02:54 56.94729 -45.88057 35855 ft 417 kts 252°
2026-04-17 02:54 56.92652 -45.98023 35860 ft 419 kts 251°
2026-04-17 02:55 56.90581 -46.07901 35862 ft 418 kts 251°
2026-04-17 02:55 56.88491 -46.17827 35865 ft 418 kts 251°
2026-04-17 02:56 56.86395 -46.27730 35870 ft 418 kts 251°
2026-04-17 02:56 56.84293 -46.37617 35874 ft 417 kts 251°
2026-04-17 02:57 56.82186 -46.47473 35874 ft 417 kts 251°
2026-04-17 02:57 56.80074 -46.57311 35879 ft 416 kts 251°
2026-04-17 02:58 56.77970 -46.67065 35881 ft 416 kts 251°
2026-04-17 02:58 56.75845 -46.76868 35886 ft 415 kts 251°
2026-04-17 02:59 56.73717 -46.86638 35890 ft 415 kts 251°
2026-04-17 02:59 56.71582 -46.96393 35893 ft 414 kts 251°
2026-04-17 03:00 56.69455 -47.06067 35907 ft 414 kts 251°
2026-04-17 03:00 56.67313 -47.15767 35903 ft 413 kts 251°
2026-04-17 03:01 56.65160 -47.25470 35899 ft 413 kts 251°
2026-04-17 03:01 56.63007 -47.35123 35910 ft 413 kts 251°
2026-04-17 03:02 56.60847 -47.44772 35911 ft 412 kts 251°
2026-04-17 03:02 56.58677 -47.54414 35927 ft 412 kts 251°
2026-04-17 03:03 56.57603 -47.59170 36128 ft 412 kts 251°
2026-04-17 03:03 56.56518 -47.63969 36369 ft 413 kts 251°
2026-04-17 03:03 56.55425 -47.68789 36623 ft 413 kts 251°
2026-04-17 03:03 56.54330 -47.73604 36875 ft 413 kts 251°
2026-04-17 03:04 56.53234 -47.78415 37130 ft 413 kts 251°
2026-04-17 03:04 56.52138 -47.83215 37390 ft 413 kts 250°
2026-04-17 03:04 56.51036 -47.88030 37655 ft 413 kts 250°
2026-04-17 03:04 56.49936 -47.92829 37891 ft 414 kts 250°
2026-04-17 03:05 56.47719 -48.02464 37931 ft 418 kts 250°
2026-04-17 03:05 56.45479 -48.12146 37928 ft 417 kts 250°
2026-04-17 03:06 56.43234 -48.21813 37931 ft 417 kts 250°
2026-04-17 03:06 56.40984 -48.31455 37935 ft 417 kts 250°
2026-04-17 03:07 56.38724 -48.41097 37934 ft 416 kts 250°
2026-04-17 03:07 56.36478 -48.50635 37940 ft 416 kts 250°
2026-04-17 03:08 56.34207 -48.60239 37944 ft 416 kts 250°
2026-04-17 03:08 56.31977 -48.69611 37948 ft 395 kts 250°
2026-04-17 03:09 56.29870 -48.78460 37949 ft 407 kts 250°
2026-04-17 03:09 56.27618 -48.87879 37952 ft 416 kts 250°
2026-04-17 03:10 56.25325 -48.97403 37957 ft 415 kts 250°
2026-04-17 03:10 56.23024 -49.06921 37958 ft 415 kts 250°
2026-04-17 03:11 56.20720 -49.16414 37957 ft 415 kts 250°
2026-04-17 03:11 56.18421 -49.25845 37962 ft 414 kts 250°
2026-04-17 03:12 56.16105 -49.35306 37967 ft 414 kts 250°
2026-04-17 03:12 56.13781 -49.44758 37965 ft 414 kts 250°
2026-04-17 03:13 56.11450 -49.54200 37974 ft 414 kts 249°
2026-04-17 03:13 56.09115 -49.63626 37971 ft 414 kts 249°
2026-04-17 03:14 56.06794 -49.72974 37969 ft 414 kts 249°
2026-04-17 03:14 56.04454 -49.82366 37973 ft 413 kts 249°
2026-04-17 03:15 56.02105 -49.91752 37980 ft 413 kts 249°
2026-04-17 03:15 55.99743 -50.01127 37984 ft 413 kts 249°
2026-04-17 03:16 55.97416 -50.10424 37986 ft 413 kts 250°
2026-04-17 03:16 55.95176 -50.19849 37984 ft 412 kts 250°
2026-04-17 03:17 55.92922 -50.29247 37985 ft 412 kts 250°
2026-04-17 03:17 55.90650 -50.38623 37985 ft 412 kts 250°
2026-04-17 03:18 55.88365 -50.47987 37991 ft 412 kts 250°
2026-04-17 03:18 55.86082 -50.57285 37993 ft 412 kts 250°
2026-04-17 03:19 55.83781 -50.66614 37995 ft 412 kts 250°
2026-04-17 03:19 55.81470 -50.75942 38002 ft 412 kts 250°
2026-04-17 03:20 55.79152 -50.85260 38001 ft 412 kts 250°
2026-04-17 03:20 55.76831 -50.94550 38006 ft 412 kts 249°
2026-04-17 03:21 55.74521 -51.03760 38004 ft 411 kts 249°
2026-04-17 03:21 55.72186 -51.13027 38015 ft 411 kts 249°
2026-04-17 03:22 55.69842 -51.22293 38010 ft 411 kts 249°
2026-04-17 03:22 55.67494 -51.31536 38009 ft 411 kts 249°
2026-04-17 03:23 55.65154 -51.40710 38008 ft 411 kts 249°
2026-04-17 03:23 55.62793 -51.49928 38007 ft 411 kts 249°
2026-04-17 03:24 55.60428 -51.59123 38019 ft 411 kts 249°
2026-04-17 03:24 55.58050 -51.68328 38021 ft 411 kts 249°
2026-04-17 03:25 55.55669 -51.77511 38020 ft 411 kts 249°
2026-04-17 03:25 55.53281 -51.86683 38015 ft 411 kts 249°
2026-04-17 03:26 55.50904 -51.95776 38018 ft 411 kts 249°
2026-04-17 03:26 55.48500 -52.04931 38023 ft 411 kts 249°
2026-04-17 03:27 55.46095 -52.14055 38025 ft 411 kts 249°
2026-04-17 03:27 55.43680 -52.23182 38024 ft 411 kts 249°
2026-04-17 03:28 55.41276 -52.32231 38027 ft 411 kts 249°
2026-04-17 03:28 55.38851 -52.41322 38032 ft 411 kts 249°
2026-04-17 03:29 55.36418 -52.50406 38031 ft 411 kts 249°
2026-04-17 03:29 55.33979 -52.59476 38032 ft 410 kts 249°
2026-04-17 03:30 55.31529 -52.68549 38036 ft 410 kts 248°
2026-04-17 03:30 55.29095 -52.77530 38037 ft 410 kts 248°
2026-04-17 03:31 55.26634 -52.86572 38043 ft 411 kts 248°
2026-04-17 03:31 55.24168 -52.95598 38046 ft 411 kts 248°
2026-04-17 03:32 55.21696 -53.04613 38041 ft 411 kts 248°
2026-04-17 03:32 55.19231 -53.13564 38040 ft 411 kts 248°
2026-04-17 03:33 55.16747 -53.22550 38041 ft 410 kts 248°
2026-04-17 03:33 55.14255 -53.31531 38059 ft 410 kts 248°
2026-04-17 03:34 55.11761 -53.40482 38046 ft 410 kts 248°
2026-04-17 03:34 55.09266 -53.49404 38051 ft 410 kts 248°
2026-04-17 03:35 55.06764 -53.58313 38054 ft 410 kts 248°
2026-04-17 03:35 55.04252 -53.67228 38059 ft 410 kts 248°
2026-04-17 03:36 55.00470 -53.80583 38058 ft 409 kts 248°
2026-04-17 03:37 54.97941 -53.89471 38063 ft 409 kts 248°
2026-04-17 03:37 54.95424 -53.98283 38062 ft 409 kts 248°
2026-04-17 03:38 54.92886 -54.07134 38063 ft 409 kts 248°
2026-04-17 03:38 54.90341 -54.15977 38068 ft 409 kts 248°
2026-04-17 03:39 54.87788 -54.24816 38066 ft 409 kts 248°
2026-04-17 03:39 54.85231 -54.33631 38069 ft 409 kts 248°
2026-04-17 03:40 54.82687 -54.42372 38070 ft 409 kts 248°
2026-04-17 03:40 54.80119 -54.51163 38073 ft 409 kts 248°
2026-04-17 03:41 54.77545 -54.59939 38073 ft 409 kts 248°
2026-04-17 03:41 54.74964 -54.68707 38073 ft 409 kts 248°
2026-04-17 03:42 54.72377 -54.77463 38073 ft 409 kts 248°
2026-04-17 03:42 54.69803 -54.86144 38074 ft 409 kts 248°
2026-04-17 03:43 54.67201 -54.94886 38074 ft 409 kts 248°
2026-04-17 03:43 54.64595 -55.03610 38077 ft 408 kts 247°
2026-04-17 03:44 54.61984 -55.12316 38077 ft 408 kts 247°
2026-04-17 03:44 54.59384 -55.20954 38075 ft 408 kts 247°
2026-04-17 03:45 54.56763 -55.29632 38076 ft 408 kts 247°
2026-04-17 03:45 54.54135 -55.38302 38076 ft 408 kts 247°
2026-04-17 03:46 54.51502 -55.46956 38077 ft 408 kts 247°
2026-04-17 03:46 54.48862 -55.55601 38080 ft 408 kts 247°
2026-04-17 03:47 54.46219 -55.64225 38084 ft 408 kts 247°
2026-04-17 03:47 54.43569 -55.72840 38080 ft 407 kts 247°
2026-04-17 03:48 54.40935 -55.81374 38077 ft 407 kts 247°
2026-04-17 03:48 54.38279 -55.89948 38079 ft 407 kts 247°
2026-04-17 03:49 54.35614 -55.98519 38080 ft 407 kts 247°
2026-04-17 03:49 54.32951 -56.07056 38075 ft 406 kts 247°
2026-04-17 03:50 54.30280 -56.15585 38074 ft 406 kts 247°
2026-04-17 03:50 54.27607 -56.24088 38077 ft 406 kts 246°
2026-04-17 03:51 54.24942 -56.32540 38077 ft 405 kts 246°
2026-04-17 03:51 54.22262 -56.41007 38076 ft 405 kts 246°
2026-04-17 03:52 54.19577 -56.49464 38074 ft 405 kts 246°
2026-04-17 03:52 54.16888 -56.57900 38088 ft 404 kts 246°
2026-04-17 03:53 54.14188 -56.66345 38071 ft 404 kts 246°
2026-04-17 03:53 54.11503 -56.74715 38069 ft 404 kts 246°
2026-04-17 03:54 54.08819 -56.83070 38069 ft 404 kts 246°
2026-04-17 03:54 54.06105 -56.91492 38063 ft 403 kts 246°
2026-04-17 03:55 54.03086 -56.99533 38064 ft 408 kts 239°
2026-04-17 03:55 53.99335 -57.06894 38078 ft 415 kts 232°
2026-04-17 03:56 53.95291 -57.13895 38072 ft 414 kts 233°
2026-04-17 03:56 53.91273 -57.20892 38085 ft 414 kts 233°
2026-04-17 03:57 53.87249 -57.27875 38085 ft 414 kts 233°
2026-04-17 03:57 53.83903 -57.33664 38081 ft 414 kts 233°
2026-04-17 03:58 53.79872 -57.40617 38080 ft 414 kts 233°
2026-04-17 03:58 53.75862 -57.47513 38082 ft 413 kts 233°
2026-04-17 03:59 53.71829 -57.54428 38084 ft 413 kts 233°
2026-04-17 03:59 53.67789 -57.61335 36394 ft 414 kts 233°
2026-04-17 03:59 53.65761 -57.64851 38323 ft 416 kts 232°
2026-04-17 04:00 53.63724 -57.68267 38335 ft 411 kts 233°
2026-04-17 04:00 53.61703 -57.71682 38077 ft 411 kts 233°
2026-04-17 04:00 53.59695 -57.75086 38082 ft 413 kts 233°
2026-04-17 04:01 53.55671 -57.81901 38084 ft 413 kts 233°
2026-04-17 04:01 53.51611 -57.88750 38104 ft 415 kts 233°
2026-04-17 04:02 53.47541 -57.95591 38078 ft 411 kts 233°
2026-04-17 04:02 53.43481 -58.02401 38077 ft 412 kts 233°
2026-04-17 04:03 53.39423 -58.09190 38073 ft 412 kts 233°
2026-04-17 04:03 53.35362 -58.15962 38070 ft 412 kts 233°
2026-04-17 04:04 53.31308 -58.22704 38066 ft 411 kts 233°
2026-04-17 04:04 53.27264 -58.29409 38062 ft 411 kts 233°
2026-04-17 04:05 53.23170 -58.36178 38061 ft 411 kts 233°
2026-04-17 04:05 53.19126 -58.42846 38054 ft 411 kts 233°
2026-04-17 04:06 53.15057 -58.49535 38046 ft 410 kts 233°
2026-04-17 04:06 53.10993 -58.56199 38039 ft 410 kts 233°
2026-04-17 04:07 53.06926 -58.62849 38039 ft 409 kts 233°
2026-04-17 04:07 53.02857 -58.69482 38031 ft 410 kts 233°
2026-04-17 04:08 52.98791 -58.76093 38027 ft 409 kts 233°
2026-04-17 04:08 52.94737 -58.82666 38024 ft 409 kts 233°
2026-04-17 04:09 52.90664 -58.89252 38018 ft 408 kts 233°
2026-04-17 04:09 52.86569 -58.95854 38012 ft 408 kts 233°
2026-04-17 04:10 52.82525 -59.02358 38010 ft 408 kts 233°
2026-04-17 04:10 52.78443 -59.08903 38002 ft 408 kts 233°
2026-04-17 04:11 52.74371 -59.15414 37991 ft 407 kts 233°
2026-04-17 04:11 52.70307 -59.21896 37985 ft 407 kts 233°
2026-04-17 04:12 52.66230 -59.28381 37981 ft 406 kts 233°
2026-04-17 04:12 52.62172 -59.34817 37984 ft 406 kts 233°
2026-04-17 04:13 52.58089 -59.41275 37975 ft 406 kts 233°
2026-04-17 04:13 52.54044 -59.47656 37969 ft 406 kts 233°
2026-04-17 04:14 52.49960 -59.54082 37965 ft 405 kts 233°
2026-04-17 04:14 52.45892 -59.60464 37960 ft 405 kts 233°
2026-04-17 04:15 52.41811 -59.66850 37955 ft 405 kts 233°
2026-04-17 04:15 52.37729 -59.73221 37953 ft 405 kts 233°
2026-04-17 04:16 52.33654 -59.79564 37957 ft 405 kts 233°
2026-04-17 04:16 52.29562 -59.85916 37951 ft 405 kts 232°
2026-04-17 04:17 52.25660 -59.91958 37950 ft 404 kts 232°
2026-04-17 04:17 52.21881 -59.97795 37949 ft 404 kts 232°
2026-04-17 04:18 52.17797 -60.04086 37946 ft 403 kts 232°
2026-04-17 04:18 52.13752 -60.10302 37940 ft 403 kts 232°
2026-04-17 04:19 52.09661 -60.16570 37931 ft 403 kts 232°
2026-04-17 04:19 52.05600 -60.22776 37930 ft 403 kts 232°
2026-04-17 04:20 52.01502 -60.29023 37929 ft 403 kts 232°
2026-04-17 04:20 51.97409 -60.35245 37919 ft 404 kts 232°
2026-04-17 04:21 51.93310 -60.41461 37912 ft 403 kts 232°
2026-04-17 04:21 51.89208 -60.47664 37910 ft 404 kts 232°
2026-04-17 04:22 51.85115 -60.53837 37905 ft 404 kts 232°
2026-04-17 04:22 51.80998 -60.60030 37903 ft 404 kts 232°
2026-04-17 04:23 51.76876 -60.66215 37893 ft 404 kts 231°
2026-04-17 04:23 51.72755 -60.72383 37893 ft 405 kts 231°
2026-04-17 04:24 51.68615 -60.78562 37892 ft 405 kts 231°
2026-04-17 04:24 51.64474 -60.84726 37887 ft 405 kts 231°
2026-04-17 04:25 51.60333 -60.90875 37886 ft 405 kts 231°
2026-04-17 04:25 51.56189 -60.97011 37888 ft 406 kts 231°
2026-04-17 04:26 51.52033 -61.03151 37884 ft 406 kts 231°
2026-04-17 04:26 51.47888 -61.09257 37882 ft 406 kts 231°
2026-04-17 04:27 51.43762 -61.15319 37881 ft 406 kts 231°
2026-04-17 04:27 51.39595 -61.21428 37882 ft 407 kts 231°
2026-04-17 04:28 51.35408 -61.27548 37883 ft 407 kts 231°
2026-04-17 04:28 51.31224 -61.33650 37889 ft 407 kts 231°
2026-04-17 04:29 51.27034 -61.39743 37875 ft 407 kts 231°
2026-04-17 04:29 51.22844 -61.45822 37881 ft 408 kts 231°
2026-04-17 04:30 51.18633 -61.51915 37878 ft 408 kts 231°
2026-04-17 04:30 51.14424 -61.57990 37878 ft 409 kts 231°
2026-04-17 04:31 51.10203 -61.64065 37875 ft 409 kts 231°
2026-04-17 04:31 51.06009 -61.70087 37870 ft 409 kts 231°
2026-04-17 04:32 51.01780 -61.76144 37871 ft 409 kts 231°
2026-04-17 04:32 50.97570 -61.82158 37870 ft 410 kts 231°
2026-04-17 04:33 50.93642 -61.87755 37868 ft 410 kts 231°
2026-04-17 04:33 50.89395 -61.93793 37867 ft 411 kts 231°
2026-04-17 04:34 50.83004 -62.02847 37863 ft 411 kts 231°
2026-04-17 04:34 50.78749 -62.08858 37855 ft 412 kts 231°
2026-04-17 04:35 50.74474 -62.14880 37846 ft 412 kts 231°
2026-04-17 04:35 50.70178 -62.20917 37848 ft 413 kts 230°
2026-04-17 04:36 50.65883 -62.26936 37856 ft 413 kts 230°
2026-04-17 04:36 50.61578 -62.32956 37852 ft 414 kts 230°
2026-04-17 04:37 50.57990 -62.37959 37851 ft 414 kts 230°
2026-04-17 04:37 50.53662 -62.43982 37850 ft 415 kts 230°
2026-04-17 04:38 50.49342 -62.49976 37850 ft 415 kts 230°
2026-04-17 04:38 50.45002 -62.55986 37847 ft 416 kts 230°
2026-04-17 04:39 50.40666 -62.61973 37842 ft 415 kts 230°
2026-04-17 04:39 50.36318 -62.67963 37840 ft 416 kts 230°
2026-04-17 04:40 50.31970 -62.73936 37842 ft 416 kts 230°
2026-04-17 04:40 50.27629 -62.79887 37841 ft 417 kts 230°
2026-04-17 04:41 50.23243 -62.85881 37838 ft 417 kts 230°
2026-04-17 04:41 50.18871 -62.91844 37834 ft 418 kts 230°
2026-04-17 04:42 50.14491 -62.97799 37830 ft 417 kts 230°
2026-04-17 04:42 50.10100 -63.03757 37824 ft 418 kts 230°
2026-04-17 04:43 50.05738 -63.09659 37816 ft 418 kts 230°
2026-04-17 04:43 50.01340 -63.15596 37820 ft 419 kts 230°
2026-04-17 04:44 49.96941 -63.21518 37819 ft 418 kts 230°
2026-04-17 04:44 49.92536 -63.27435 37817 ft 419 kts 230°
2026-04-17 04:45 49.88122 -63.33347 37813 ft 418 kts 230°
2026-04-17 04:45 49.83731 -63.39216 37811 ft 419 kts 230°
2026-04-17 04:46 49.79333 -63.45077 37808 ft 419 kts 230°
2026-04-17 04:46 49.74910 -63.50959 37811 ft 420 kts 230°
2026-04-17 04:47 49.70481 -63.56832 37823 ft 419 kts 230°
2026-04-17 04:47 49.66048 -63.62698 37815 ft 420 kts 230°
2026-04-17 04:48 49.61605 -63.68560 37804 ft 420 kts 230°
2026-04-17 04:48 49.57165 -63.74406 37813 ft 420 kts 230°
2026-04-17 04:49 49.54068 -63.78474 37804 ft 420 kts 230°
2026-04-17 04:49 49.49619 -63.84307 37801 ft 421 kts 230°
2026-04-17 04:50 49.45184 -63.90106 37805 ft 420 kts 230°
2026-04-17 04:50 49.40729 -63.95919 37804 ft 420 kts 230°
2026-04-17 04:51 49.36261 -64.01731 37797 ft 420 kts 230°
2026-04-17 04:51 49.31792 -64.07533 37801 ft 421 kts 230°
2026-04-17 04:52 49.27333 -64.13306 37799 ft 420 kts 230°
2026-04-17 04:52 49.22855 -64.19090 37794 ft 420 kts 230°
2026-04-17 04:53 49.18387 -64.24847 37799 ft 420 kts 230°
2026-04-17 04:55 49.00480 -64.47780 37788 ft 420 kts 230°
2026-04-17 04:55 48.96003 -64.53479 37788 ft 420 kts 230°
2026-04-17 04:56 48.91527 -64.59163 37782 ft 420 kts 230°
2026-04-17 04:56 48.87031 -64.64860 37783 ft 420 kts 230°
2026-04-17 04:57 48.82534 -64.70543 37789 ft 420 kts 230°
2026-04-17 04:57 48.78029 -64.76222 37788 ft 421 kts 230°
2026-04-17 04:58 48.75070 -64.79944 37791 ft 421 kts 230°
2026-04-17 04:58 48.70873 -64.85215 37797 ft 422 kts 230°
2026-04-17 04:59 48.66357 -64.90874 37803 ft 422 kts 230°
2026-04-17 04:59 48.61834 -64.96529 37810 ft 422 kts 230°
2026-04-17 05:00 48.57348 -65.02120 37813 ft 422 kts 230°
2026-04-17 05:00 48.52817 -65.07758 37814 ft 422 kts 230°
2026-04-17 05:01 48.48311 -65.13349 37816 ft 423 kts 230°
2026-04-17 05:01 48.43764 -65.18982 37815 ft 423 kts 230°
2026-04-17 05:02 48.39252 -65.24559 37816 ft 422 kts 230°
2026-04-17 05:02 48.34680 -65.30193 37810 ft 422 kts 230°
2026-04-17 05:03 48.30137 -65.35778 37811 ft 421 kts 230°
2026-04-17 05:03 48.25602 -65.41338 37825 ft 421 kts 229°
2026-04-17 05:04 48.21074 -65.46877 37812 ft 420 kts 229°
2026-04-17 05:04 48.16554 -65.52393 37815 ft 419 kts 229°
2026-04-17 05:05 48.12019 -65.57915 37812 ft 419 kts 229°
2026-04-17 05:05 48.07516 -65.63384 37820 ft 417 kts 229°
2026-04-17 05:06 48.03036 -65.68814 37817 ft 417 kts 229°
2026-04-17 05:06 47.98518 -65.74276 37821 ft 416 kts 229°
2026-04-17 05:07 47.94045 -65.79672 37821 ft 415 kts 229°
2026-04-17 05:07 47.89592 -65.85032 37820 ft 414 kts 229°
2026-04-17 05:08 47.85083 -65.90446 37821 ft 414 kts 229°
2026-04-17 05:08 47.80607 -65.95807 37820 ft 413 kts 229°
2026-04-17 05:09 47.76130 -66.01159 37833 ft 412 kts 229°
2026-04-17 05:09 47.71639 -66.06514 37817 ft 411 kts 229°
2026-04-17 05:10 47.67211 -66.11784 37814 ft 411 kts 229°
2026-04-17 05:10 47.62751 -66.17078 37817 ft 410 kts 229°
2026-04-17 05:11 47.58304 -66.22347 37811 ft 410 kts 229°
2026-04-17 05:11 47.53890 -66.27564 37809 ft 408 kts 229°
2026-04-17 05:12 47.50931 -66.31054 37804 ft 408 kts 229°
2026-04-17 05:12 47.47298 -66.35333 37803 ft 407 kts 229°
2026-04-17 05:13 47.43037 -66.40336 37804 ft 407 kts 229°
2026-04-17 05:13 47.38627 -66.45512 37803 ft 406 kts 229°
2026-04-17 05:14 47.34247 -66.50643 37805 ft 405 kts 229°
2026-04-17 05:14 47.29907 -66.55714 37804 ft 405 kts 229°
2026-04-17 05:15 47.26229 -66.60001 37805 ft 405 kts 229°
2026-04-17 05:16 47.16761 -66.71006 37804 ft 404 kts 229°
2026-04-17 05:16 47.15302 -66.72698 37802 ft 403 kts 229°